GFSFLT2_500_rhum_003.txt.gz
RH
3 4 4 5 6 6 7 8 10 11 11 12 13 14 18 21 27 33 37 37 38 37 35 35 35 34 36 35 39 37 22 16
4 4 4 5 6 6 8 10 12 13 18 22 23 28 30 30 31 33 34 36 36 35 32 31 31 33 33 35 40 41 45 38
4 5 5 6 8 10 10 11 14 18 22 26 29 33 32 34 37 34 32 32 38 40 43 42 38 36 39 37 35 35 38 38
8 9 11 12 14 16 18 20 24 25 27 25 26 28 29 28 28 33 38 41 44 44 42 41 44 44 39 39 38 39 39 33
13 14 16 20 21 18 20 27 27 28 29 27 26 29 31 32 36 36 37 41 45 46 46 43 41 41 41 36 35 32 32 32
13 16 17 13 12 13 17 14 14 28 37 31 31 32 36 39 37 36 36 37 36 37 36 35 32 29 30 28 28 26 24 23
16 17 22 32 68 38 22 20 17 25 30 36 39 42 40 38 35 36 36 36 36 35 31 29 21 13 11 14 16 14 14 12
19 32 42 77 91 65 50 37 36 34 41 42 40 38 34 37 38 41 40 36 32 30 24 21 20 18 18 16 16 14 13 11
23 84 72 100 95 65 79 80 63 47 38 44 47 42 54 54 46 43 36 31 27 22 20 20 20 20 19 18 17 19 20 18
24 16 47 95 86 78 69 93 85 57 50 52 46 37 49 53 44 39 33 28 25 23 23 23 23 24 23 22 20 20 19 19
12 26 31 61 57 81 96 87 70 73 74 68 68 67 60 48 37 40 36 32 34 33 31 31 31 31 30 27 27 25 23 22
20 22 55 57 71 70 82 95 91 84 83 85 73 63 49 46 44 43 41 42 42 39 34 35 31 29 26 27 27 26 25 20
30 34 33 38 63 98 84 89 89 86 70 68 55 53 54 48 44 44 42 42 47 47 43 39 42 44 36 29 24 23 21 18
39 45 77 63 74 80 81 96 87 73 68 58 58 48 42 44 42 41 41 40 39 38 37 35 35 37 36 33 26 26 30 29
81 83 64 56 73 78 93 90 66 60 56 47 47 51 50 48 47 46 40 33 31 33 34 36 34 42 49 47 38 34 29 31
51 58 65 72 70 82 77 65 61 54 54 55 56 53 52 50 48 44 42 38 34 31 36 39 41 40 40 47 57 55 41 31
65 68 64 64 64 66 64 60 59 59 59 57 54 48 40 40 38 34 36 39 44 45 44 48 52 49 48 44 47 62 77 77
61 63 68 66 62 60 63 60 53 46 52 54 44 36 33 39 40 44 48 50 49 49 49 59 78 80 77 75 49 14 15 48
69 72 67 59 43 38 35 36 36 32 30 30 30 33 40 46 48 50 52 52 49 47 44 42 38 36 28 19 11 7 9 10
74 73 70 59 48 40 34 26 25 29 29 35 38 45 52 57 58 56 50 40 29 21 14 10 8 8 10 11 11 12 14 15

GFSFLT2_500_rhum_009.txt.gz
RH
4 2 3 4 5 6 7 7 8 9 11 13 16 21 27 28 27 25 24 23 23 25 26 26 28 34 35 35 36 38 37 35
2 2 4 5 6 6 6 7 9 13 14 17 22 28 28 23 24 25 27 28 31 34 33 33 34 35 36 37 38 40 41 40
4 4 6 6 7 7 9 12 15 17 19 24 29 24 20 25 26 27 30 30 31 28 26 25 25 27 31 34 35 36 36 37
4 4 5 8 10 12 16 19 22 20 23 22 20 20 21 20 22 30 34 35 36 31 32 34 35 34 32 31 33 35 32 28
6 8 13 18 20 21 22 27 43 60 57 46 41 41 27 21 25 28 36 37 35 33 36 38 38 35 34 37 35 32 28 24
13 17 20 14 15 16 19 45 94 80 76 68 65 57 46 31 28 33 37 36 38 41 38 35 30 28 28 29 30 28 25 24
14 19 22 26 41 56 51 69 100 90 75 84 67 61 45 32 35 40 46 44 40 37 34 31 29 31 32 31 32 30 27 25
27 33 27 26 51 42 52 60 54 46 53 55 46 38 33 44 45 46 42 41 38 38 35 35 34 32 33 32 32 32 33 34
18 21 17 36 60 81 72 58 62 45 48 62 39 43 52 58 52 53 50 48 44 43 44 45 45 43 39 34 32 31 30 28
27 39 84 97 92 74 86 53 47 43 56 83 85 84 64 62 51 53 51 52 48 45 41 33 26 21 19 18 16 16 14 15
60 94 98 97 98 93 97 53 47 87 92 91 82 68 69 58 56 54 50 33 20 17 15 13 13 12 11 11 12 12 13 11
94 100 94 90 97 58 39 61 94 98 85 70 70 66 67 57 48 26 19 15 14 14 14 14 15 14 14 14 14 15 14 12
65 69 68 67 41 51 72 94 83 82 78 82 75 68 41 28 25 26 22 20 19 18 18 18 18 16 15 14 14 14 14 15
87 52 42 48 52 54 69 82 65 66 73 76 63 44 32 29 24 22 22 24 24 23 24 23 22 20 18 17 14 15 18 20
72 62 59 57 55 57 58 70 75 79 70 51 35 25 23 27 29 31 31 30 29 28 28 26 26 25 23 20 18 16 15 16
64 63 64 61 60 73 79 83 78 62 44 32 28 30 33 36 39 41 37 35 34 34 32 30 27 24 22 19 17 16 16 16
62 62 65 69 78 85 84 67 51 36 31 31 38 39 40 40 41 40 36 34 34 37 35 28 22 17 14 12 11 10 10 10
69 79 82 80 77 54 41 37 33 32 33 35 35 34 38 38 33 42 45 44 42 35 26 18 13 12 12 13 14 14 12 12
75 79 64 49 46 46 40 34 31 33 33 29 26 26 29 38 46 47 47 42 31 23 17 13 10 8 22 33 18 24 25 31
45 30 29 34 34 28 27 28 27 31 31 26 29 43 44 46 52 49 38 27 26 18 14 10 17 68 87 46 34 36 64 17

GFSFLT2_500_rhum_015.txt.gz
RH
30 14 9 3 4 5 5 6 6 7 7 8 8 12 15 19 24 21 16 15 16 18 15 12 15 20 21 21 21 23 25 26
13 7 3 3 7 7 7 6 6 8 10 14 16 20 19 25 35 40 41 38 29 14 24 24 15 13 15 18 22 24 26 26
4 4 7 8 7 6 7 8 11 14 18 20 22 30 50 74 77 65 60 54 53 36 37 37 34 30 29 25 24 29 30 26
8 7 7 7 9 10 17 17 20 18 22 24 43 67 94 78 65 61 66 58 63 51 48 44 42 42 40 38 37 34 31 29
7 10 10 13 18 21 18 17 17 19 33 52 59 78 69 60 51 45 54 48 45 54 53 45 41 40 39 37 37 37 36 33
13 11 12 13 15 17 15 21 31 40 54 58 58 58 53 50 50 46 42 39 42 45 49 48 46 45 44 42 41 42 41 42
18 19 23 21 21 22 24 32 45 53 65 69 76 57 43 52 62 57 51 40 52 51 55 55 54 51 47 39 31 26 23 22
22 23 26 24 28 45 49 89 95 91 98 98 97 94 79 100 87 70 69 57 57 56 50 52 45 26 18 16 14 13 13 13
24 60 76 75 92 100 97 97 97 96 97 100 98 100 95 83 89 69 71 66 59 57 44 19 15 14 13 13 12 11 10 10
35 63 92 98 99 99 99 96 96 95 84 95 95 90 98 100 88 64 60 58 62 58 27 16 15 16 16 15 15 15 14 13
63 96 91 99 96 98 98 89 86 84 60 72 77 77 66 70 67 62 63 60 38 24 20 21 21 20 20 20 19 17 16 15
56 81 91 100 96 71 42 62 59 54 54 54 62 69 70 72 70 67 47 22 22 27 28 27 26 24 22 21 20 20 20 20
62 79 89 81 47 63 63 60 63 57 59 64 70 76 78 75 63 35 24 26 28 33 32 29 26 26 24 22 21 19 19 18
57 40 32 36 52 54 57 52 53 56 70 75 76 69 54 37 28 26 30 35 43 41 34 31 24 20 21 20 18 18 17 19
58 48 52 73 77 67 57 62 68 73 62 44 36 36 40 39 39 43 50 52 38 31 26 20 19 20 20 21 20 20 22 25
67 91 97 90 70 55 54 60 54 43 38 46 52 54 55 57 56 52 41 32 30 24 16 16 18 20 19 21 25 26 30 28
61 100 96 49 54 62 64 60 50 50 60 70 72 61 50 47 44 36 31 28 21 16 17 18 20 24 30 34 35 28 20 14
34 26 27 42 62 83 68 52 53 52 52 49 49 50 48 40 36 34 32 25 21 20 23 26 32 35 33 23 13 11 10 16
22 24 28 33 40 62 55 50 47 48 48 54 53 48 46 44 39 31 23 22 26 26 30 38 36 27 14 10 9 8 10 14
22 24 26 29 32 36 40 47 55 57 53 52 54 52 47 40 33 30 34 33 29 34 40 36 24 12 8 8 9 14 18 21

GFSFLT2_500_rhum_021.txt.gz
RH
96 96 91 95 59 6 6 6 6 6 5 5 6 7 7 8 12 16 18 26 44 50 50 45 39 27 24 23 19 21 25 26
92 92 83 40 14 5 6 7 6 6 5 6 6 7 11 12 15 17 26 31 59 64 53 44 43 29 24 21 20 21 26 29
95 51 20 9 9 8 7 6 5 6 8 12 17 14 13 15 23 30 38 38 44 43 41 40 37 31 30 32 33 30 30 31
30 36 10 8 8 8 10 14 14 16 18 19 17 20 35 44 47 46 47 50 51 42 38 42 41 34 30 35 40 36 40 40
7 8 15 11 13 16 18 16 21 23 28 30 38 44 43 44 60 64 86 86 58 43 41 40 40 41 41 42 45 48 49 47
7 9 16 16 18 21 20 20 25 24 26 38 67 80 91 90 94 96 91 80 75 61 54 58 52 50 64 61 55 58 52 44
18 18 19 20 23 29 43 50 54 66 82 93 96 99 98 98 98 99 86 82 70 65 71 72 63 58 58 54 54 60 48 24
20 20 22 30 57 69 87 97 97 96 95 95 99 97 99 97 94 93 79 72 68 72 79 68 58 59 53 56 58 52 34 25
22 25 30 45 65 78 99 98 96 97 96 98 92 94 81 67 57 41 66 72 60 70 65 70 72 70 72 62 31 24 25 24
45 51 59 65 63 78 90 98 96 94 94 64 54 57 62 55 51 56 61 70 73 70 60 52 49 46 42 35 25 24 24 21
71 76 76 68 67 81 97 71 42 53 66 67 66 59 55 51 53 53 51 43 36 37 36 35 33 34 32 28 27 22 22 21
59 54 58 64 82 78 58 48 52 66 70 62 59 44 48 48 50 48 44 38 36 39 41 48 49 45 44 46 46 43 40 37
43 44 52 78 89 63 57 37 35 43 34 29 39 46 60 61 53 48 52 62 64 67 67 72 69 60 52 49 46 41 34 28
36 53 64 65 65 38 28 19 19 19 23 24 26 31 38 48 76 81 69 74 79 73 68 66 61 55 45 34 28 27 28 27
57 66 66 52 28 19 18 18 19 20 22 22 25 32 37 45 49 58 74 76 71 63 60 61 48 39 37 34 31 28 23 24
25 22 22 21 19 19 19 18 19 19 18 21 23 26 35 38 36 47 57 61 63 66 59 44 43 41 37 40 35 26 20 17
18 17 18 18 18 18 19 21 23 23 22 23 25 27 30 30 33 50 69 72 67 57 52 54 47 43 42 32 24 20 17 15
18 18 19 19 20 22 28 29 29 30 30 38 41 36 33 35 40 57 61 64 61 55 54 49 47 45 27 23 22 17 16 14
24 23 24 25 26 29 31 33 33 37 99 88 100 57 41 45 56 64 67 68 62 58 58 59 46 31 23 22 18 14 8 5
27 26 27 30 32 34 36 38 39 47 92 90 45 42 38 40 58 69 70 69 67 65 57 48 38 28 22 17 10 6 6 8

GFSFLT2_500_rhum_024.txt.gz
RH
97 96 96 97 96 92 47 10 6 5 11 12 7 5 7 7 9 12 12 13 16 24 31 48 47 43 44 37 27 23 20 17
95 95 98 92 83 45 25 21 8 13 5 5 5 7 9 15 14 14 17 23 38 38 38 38 34 37 38 34 31 29 24 21
96 95 94 79 43 22 12 6 6 6 7 7 11 14 14 17 19 20 37 59 52 58 57 54 44 36 37 34 29 28 33 26
95 86 72 42 16 6 6 7 11 14 16 14 14 15 22 26 36 47 67 100 95 76 69 58 49 47 40 42 36 36 33 28
14 18 18 14 8 10 15 17 18 16 17 18 26 32 78 97 94 99 97 100 88 72 60 66 50 55 57 56 51 53 52 52
7 11 12 16 16 21 20 34 90 88 91 92 90 98 100 95 94 88 80 86 75 60 58 50 46 43 58 62 71 69 70 62
14 19 18 20 22 48 76 88 89 95 94 96 99 94 92 80 83 80 51 46 40 38 32 43 41 57 60 64 53 57 60 66
22 22 24 27 42 64 70 92 99 98 98 98 96 100 55 53 47 55 37 27 44 40 37 36 44 48 52 50 43 44 56 62
24 33 44 57 64 65 74 92 97 96 80 65 70 65 56 57 40 30 26 25 29 38 36 34 31 28 29 31 34 37 39 34
47 57 52 54 60 67 72 88 90 58 50 53 66 44 22 20 20 26 25 28 34 37 39 40 38 37 38 35 32 39 38 37
36 62 60 58 59 65 90 72 66 54 30 26 26 20 19 19 22 24 25 31 35 37 40 43 43 42 39 42 43 48 56 51
28 42 59 47 42 61 93 67 43 19 16 17 18 17 18 19 22 26 32 30 28 31 37 55 75 73 70 65 62 64 56 47
35 20 52 58 43 54 65 41 17 16 17 17 18 20 20 20 20 21 24 29 30 33 50 52 55 57 60 61 58 48 48 48
36 50 52 47 50 56 25 16 16 17 19 23 26 26 24 25 27 31 33 33 40 37 37 48 55 60 59 57 49 49 49 46
44 40 28 20 20 18 17 16 18 22 25 28 29 28 28 34 40 61 75 37 32 28 38 53 54 60 61 59 54 48 40 39
29 20 18 17 17 18 18 20 22 24 25 28 30 33 35 51 73 78 50 36 33 32 51 64 66 64 61 56 51 42 34 30
16 16 17 18 19 20 22 23 22 24 27 33 38 40 43 62 68 46 37 33 31 40 69 76 74 63 52 41 28 21 17 17
17 20 24 24 24 26 25 25 26 30 35 40 43 46 48 51 51 44 42 38 40 65 78 76 63 44 34 30 25 22 20 13
24 25 24 23 22 22 23 25 31 35 38 43 47 50 53 50 50 52 46 51 71 80 80 61 48 41 35 33 29 22 20 13
23 22 20 19 19 20 23 26 29 28 30 30 32 40 61 70 58 56 59 74 80 79 66 65 58 46 50 44 36 25 10 6